EW4392 Weather Reports


time (UTC)temp
C
wind
direction
speed
KPH
gust
KPH
rain 1hr
cm
rain 24hr
cm
rain mn
cm
humidity
%
barometer
mb
20260510140002 21 199 0.0 12.9 0.00 0.00 0.00 63 1014.5
20260510134601 20 178 1.6 8.0 0.00 0.00 0.00 65 1014.5
20260510133057 20 228 0.0 8.0 0.00 0.00 0.00 67 1014.6
20260510131551 18 105 1.6 6.4 0.00 0.00 0.00 67 1014.6
20260510130048 18 113 0.0 3.2 0.00 0.00 0.00 67 1014.6
20260510124543 17 325 0.0 8.0 0.00 0.00 0.00 69 1014.5
20260510123041 17 322 1.6 8.0 0.00 0.00 0.00 70 1014.4
20260510121537 16 208 0.0 9.7 0.00 0.00 0.00 72 1014.4
20260510120033 16 313 3.2 12.9 0.00 0.00 0.00 73 1014.3
20260510114529 15 116 0.0 9.7 0.00 0.00 0.00 77 1014.1
20260510113028 13 126 0.0 9.7 0.00 0.00 0.00 82 1014.0
20260510111525 11 209 0.0 3.2 0.00 0.00 0.00 86 1013.7
20260510110022 11 38 0.0 0.0 0.00 0.00 0.00 84 1013.4
20260510104520 11 325 0.0 0.0 0.00 0.00 0.00 85 1013.1
20260510103018 11 325 0.0 1.6 0.00 0.00 0.00 85 1013.0
20260510101517 10 315 0.0 1.6 0.00 0.00 0.00 87 1012.8
20260510100015 10 317 0.0 1.6 0.00 0.00 0.00 86 1012.7
20260510094531 10 90 0.0 1.6 0.00 0.00 0.00 87 1012.6
20260510093011 10 323 0.0 4.8 0.00 0.00 0.00 85 1012.4
20260510091509 11 112 0.0 0.0 0.00 0.00 0.00 82 1012.3
20260510090007 12 346 0.0 0.0 0.00 0.00 0.00 80 1012.2
20260510084517 11 334 0.0 0.0 0.00 0.00 0.00 82 1012.3
20260510083005 11 355 0.0 0.0 0.00 0.00 0.00 82 1012.2
20260510081506 11 315 0.0 3.2 0.00 0.00 0.00 82 1012.1
20260510080002 11 353 0.0 3.2 0.00 0.00 0.00 81 1011.8
20260510074602 11 52 0.0 1.6 0.00 0.00 0.00 83 1011.7
20260510073059 11 67 0.0 1.6 0.00 0.00 0.00 80 1011.5
20260510071600 12 230 0.0 3.2 0.00 0.00 0.00 79 1011.5
20260510070058 11 24 0.0 1.6 0.00 0.00 0.00 79 1011.4
20260510064604 12 328 0.0 0.0 0.00 0.00 0.00 77 1011.4
20260510063056 12 328 0.0 1.6 0.00 0.00 0.00 78 1011.5
20260510061559 11 332 0.0 1.6 0.00 0.00 0.00 79 1011.5
20260510060055 11 66 0.0 3.2 0.00 0.00 0.00 81 1011.5
20260510054551 12 66 0.0 1.6 0.00 0.00 0.00 78 1011.6
20260510053048 13 50 0.0 1.6 0.00 0.00 0.00 74 1011.5
20260510051552 13 120 0.0 0.0 0.00 0.00 0.00 72 1011.6
20260510050043 13 315 0.0 3.2 0.00 0.00 0.00 72 1011.6
20260510044546 14 334 0.0 3.2 0.00 0.00 0.00 69 1011.4
20260510043040 14 321 0.0 3.2 0.00 0.00 0.00 71 1011.6
20260510041541 13 323 3.2 4.8 0.00 0.00 0.00 72 1011.4
20260510040033 15 326 0.0 4.8 0.00 0.00 0.00 68 1011.3
20260510034531 15 323 0.0 3.2 0.00 0.00 0.00 68 1011.4
20260510033031 16 309 0.0 4.8 0.00 0.00 0.00 64 1011.2
20260510031531 16 316 0.0 6.4 0.00 0.00 0.00 64 1011.1
20260510030029 15 316 0.0 3.2 0.00 0.00 0.00 65 1011.2
20260510024529 17 114 0.0 8.0 0.00 0.00 0.00 59 1010.9
20260510023028 17 312 1.6 4.8 0.00 0.00 0.00 59 1010.8
20260510021528 17 338 0.0 1.6 0.00 0.00 0.00 58 1010.7
20260510020027 17 85 0.0 3.2 0.00 0.00 0.00 57 1010.5
20260510014527 18 7 0.0 3.2 0.00 0.00 0.00 55 1010.2
20260510013026 18 109 0.0 6.4 0.00 0.00 0.00 53 1009.7
20260510011527 18 323 3.2 6.4 0.00 0.00 0.00 53 1009.6
20260510010025 18 332 1.6 8.0 0.00 0.00 0.00 53 1009.5
20260510004525 18 331 0.0 4.8 0.00 0.00 0.00 54 1009.3
20260510003035 18 310 0.0 4.8 0.00 0.00 0.00 52 1009.2
20260510001525 18 35 0.0 3.2 0.00 0.00 0.00 56 1009.1
20260510000024 20 128 1.6 8.0 0.00 0.00 0.00 50 1008.7
20260509234531 21 118 0.0 4.8 0.00 0.00 0.00 46 1008.4
20260509233022 21 64 0.0 6.4 0.00 0.00 0.00 46 1008.3
20260509231523 22 130 0.0 8.0 0.00 0.00 0.00 45 1008.1
20260509230021 22 192 1.6 9.7 0.00 0.00 0.00 46 1008.0
20260509224521 22 169 3.2 16.1 0.00 0.00 0.00 45 1008.0
20260509223021 22 301 1.6 14.5 0.00 0.00 0.00 44 1008.0
20260509221520 22 226 1.6 12.9 0.00 0.00 0.00 45 1008.0
20260509220025 22 233 1.6 9.7 0.00 0.00 0.00 47 1007.9
20260509214518 22 312 1.6 14.5 0.00 0.00 0.00 45 1007.9
20260509213018 22 227 1.6 8.0 0.00 0.00 0.00 46 1007.8
20260509211518 22 194 1.6 11.3 0.00 0.00 0.00 45 1007.6
20260509210015 22 235 3.2 16.1 0.00 0.00 0.00 45 1007.5
20260509204519 22 220 3.2 16.1 0.00 0.00 0.00 44 1007.5
20260509203014 23 220 4.8 16.1 0.00 0.00 0.00 44 1007.5
20260509201513 22 237 4.8 16.1 0.00 0.00 0.00 44 1007.4
20260509200012 24 232 4.8 17.7 0.00 0.00 0.00 42 1007.4
20260509194516 25 111 4.8 16.1 0.00 0.00 0.00 42 1007.4
20260509193008 24 130 3.2 9.7 0.00 0.00 0.00 46 1007.4
20260509191506 23 140 3.2 9.7 0.00 0.00 0.00 54 1007.6
20260509190003 22 106 3.2 11.3 0.00 0.00 0.00 53 1007.8
20260509184601 22 124 3.2 12.9 0.00 0.00 0.00 55 1007.9
20260509183103 22 123 3.2 12.9 0.00 0.00 0.00 55 1007.9
20260509181600 22 210 6.4 14.5 0.00 0.00 0.00 55 1008.3
20260509180053 22 122 1.6 9.7 0.00 0.00 0.00 56 1008.4
20260509174551 21 109 4.8 12.9 0.00 0.00 0.00 60 1008.5
20260509173051 21 109 4.8 11.3 0.00 0.00 0.00 58 1008.7
20260509171550 22 130 1.6 8.0 0.00 0.00 0.00 59 1009.0
20260509170049 20 100 1.6 6.4 0.00 0.00 0.00 62 1009.3
20260509164544 21 228 0.0 9.7 0.00 0.00 0.00 61 1009.5
20260509163040 21 127 3.2 11.3 0.00 0.00 0.00 60 1009.7
20260509161538 21 147 0.0 9.7 0.00 0.00 0.00 61 1009.6
20260509160037 20 133 1.6 8.0 0.00 0.00 0.00 62 1009.6
20260509154534 19 123 1.6 11.3 0.00 0.00 0.00 63 1009.7
20260509153038 19 114 3.2 12.9 0.00 0.00 0.00 62 1010.2
20260509151530 19 130 3.2 8.0 0.00 0.00 0.00 63 1010.1
20260509150028 18 116 1.6 6.4 0.00 0.00 0.00 64 1009.8
20260509144531 18 81 0.0 8.0 0.00 0.00 0.00 63 1010.3
20260509143023 17 197 1.6 9.7 0.00 0.00 0.00 65 1010.6
20260509141520 16 226 0.0 4.8 0.00 0.00 0.00 70 1010.5